Lovelock, NV

4:47 AM PDT on October 17, 2017 (GMT -0700)
Derby

Weather History for KLOL - September, 2013

Change the Weather History Date:

Saturday, September 28, 2013

  Actual Average Record
Temperature  
Mean Temperature 49 °F -  
Max Temperature 75 °F 79 °F 98 °F (2010)
Min Temperature 25 °F 41 °F 25 °F (1959)
Degree Days  
Heating Degree Days 16    
Moisture  
Dew Point 23 °F    
Average Humidity 36    
Maximum Humidity 60    
Minimum Humidity 18    
Precipitation  
Precipitation 0.00 in - - ()
Sea Level Pressure  
Sea Level Pressure 30.09 in    
Wind  
Wind Speed 4 mph (SSW)    
Max Wind Speed 13 mph    
Max Gust Speed 23 mph    
Visibility 10 miles    
Events      
Averages and records for this station are not official NWS values.
T = Trace of Precipitation, MM = Missing Value Source: NWS Daily Summary

Daily Weather History Graph

Daily Weather History Graph

Search for Another Location

Airport or City:

Trip Planner

Search our weather history database for the weather conditions in past years. The results will help you decide how hot, cold, wet, or windy it might be!

Date:

Astronomy

Sep. 28, 2013 Rise Set
Actual Time 6:47 AM PDT 6:40 PM PDT
Civil Twilight 6:20 AM PDT 7:07 PM PDT
Nautical Twilight 5:49 AM PDT 7:39 PM PDT
Astronomical Twilight 5:17 AM PDT 8:11 PM PDT
Moon 12:39 AM PDT (9/28) 3:02 PM PDT (9/28)
Length of Visible Light 12h 46m
Length of Day
11h 52m
Waning Crescent, 35% of the Moon is Illuminated
Sep 28
Waning Crescent
Oct 4
New
Oct 11
First Quarter
Oct 18
Full
Oct 26
Last Quarter

Hourly Weather History & Observations

Time (PDT) Temp. Windchill Dew Point Humidity Pressure Visibility Wind Dir Wind Speed Gust Speed Precip Events Conditions
12:53 AM 34.0 °F - 17.1 °F 50% 30.15 in 10.0 mi Calm Calm - N/A   Clear
1:53 AM 30.9 °F 25.2 °F 15.1 °F 52% 30.16 in 10.0 mi East 5.8 mph - N/A   Clear
2:53 AM 30.0 °F 26.5 °F 15.1 °F 54% 30.14 in 10.0 mi NNW 3.5 mph - N/A   Clear
3:53 AM 28.0 °F 21.7 °F 15.1 °F 58% 30.15 in 10.0 mi SE 5.8 mph - N/A   Clear
4:53 AM 27.0 °F 21.6 °F 14.0 °F 58% 30.14 in 10.0 mi NW 4.6 mph - N/A   Clear
5:53 AM 25.0 °F - 12.0 °F 58% 30.17 in 10.0 mi Calm Calm - N/A   Clear
6:53 AM 25.0 °F 19.3 °F 12.9 °F 60% 30.19 in 10.0 mi West 4.6 mph - N/A   Clear
7:53 AM 35.1 °F - 19.0 °F 52% 30.18 in 10.0 mi Calm Calm - N/A   Clear
8:53 AM 45.0 °F - 23.0 °F 42% 30.18 in 10.0 mi Calm Calm - N/A   Clear
9:53 AM 54.0 °F - 23.0 °F 30% 30.17 in 10.0 mi Calm Calm - N/A   Clear
10:53 AM 59.0 °F - 24.1 °F 26% 30.15 in 10.0 mi Calm Calm - N/A   Clear
11:53 AM 64.0 °F - 24.1 °F 22% 30.14 in 10.0 mi SSW 5.8 mph - N/A   Clear
12:53 PM 69.1 °F - 24.1 °F 18% 30.09 in 10.0 mi SSW 8.1 mph - N/A   Clear
1:53 PM 70.0 °F - 26.1 °F 19% 30.07 in 10.0 mi SW 10.4 mph - N/A   Clear
2:53 PM 73.9 °F - 27.0 °F 18% 30.04 in 10.0 mi South 12.7 mph 23.0 mph N/A   Clear
3:53 PM 73.9 °F - 27.0 °F 18% 30.03 in 10.0 mi SSW 11.5 mph - N/A   Clear
4:53 PM 73.0 °F - 27.0 °F 18% 30.01 in 10.0 mi South 10.4 mph - N/A   Clear
5:53 PM 72.0 °F - 27.0 °F 19% 30.00 in 10.0 mi SSE 8.1 mph - N/A   Clear
6:53 PM 66.0 °F - 28.0 °F 24% 30.01 in 10.0 mi Calm Calm - N/A   Clear
7:53 PM 61.0 °F - 26.1 °F 26% 30.00 in 10.0 mi Calm Calm - N/A   Clear
8:53 PM 55.9 °F - 25.0 °F 30% 30.01 in 10.0 mi Calm Calm - N/A   Clear
9:53 PM 64.9 °F - 33.1 °F 31% 29.99 in 10.0 mi WSW 5.8 mph - N/A   Clear
10:53 PM 59.0 °F - 34.0 °F 39% 29.98 in 10.0 mi SW 12.7 mph - N/A   Clear
11:53 PM 59.0 °F - 33.1 °F 38% 29.97 in 10.0 mi SW 11.5 mph - N/A   Clear